AirNav   Air Wisconsin Up To $57,000 Bonus
 
 1146 users online  

6P7 McVille Airport
Freeport, Pennsylvania, USA

GOING TO FREEPORT?


FAA INFORMATION EFFECTIVE 03 DECEMBER 2020

Location

FAA Identifier: 6P7
Lat/Long: 40-44-04.4250N 079-35-44.3250W
40-44.073750N 079-35.738750W
40.7345625,-79.5956458
(estimated)
Elevation: 1104.5 ft. / 337 m (estimated)
Variation: 10W (2020)
From city: 7 miles NE of FREEPORT, PA
Time zone: UTC -5 (UTC -4 during Daylight Saving Time)
Zip code: 16229

Airport Operations

Airport use: Open to the public
Activation date: 12/2014
Control tower: no
ARTCC: CLEVELAND CENTER
FSS: ALTOONA FLIGHT SERVICE STATION
NOTAMs facility: AOO (NOTAM-D service available)
Attendance: 0800-1700
Wind indicator: lighted
Segmented circle: yes
Lights: ACTIVATE MIRLS RWY 14/32 - 122.8.
Beacon: white-green (lighted land airport)
Operates sunset to sunrise.

Airport Communications

CTAF/UNICOM: 123.0
JOHNSTOWN APPROACH: 121.2
JOHNSTOWN DEPARTURE: 121.2
WX AWOS-3PT at BTP (16 nm W): 121.450 (724-586-6434)
  • APCH/DEP SVC PRVDD BY CLEVELAND ARTCC ON FREQS 124.4/327.1 (ALTOONA RCAG) WHEN JOHNSTOWN (JST) APCH/DEP CLSD.

Nearby radio navigation aids

VOR radial/distance  VOR name  Freq  Var
CIPr200/25.5CLARION VOR/DME112.9006W
EWCr109/28.5ELLWOOD CITY VOR/DME115.8008W
AGCr046/34.1ALLEGHENY VOR/DME110.0009W

Airport Services

Fuel available: 100LL MOGAS
MOGAS IS 89 OCTANE
Parking: tiedowns
Airframe service: MAJOR
Powerplant service: MAJOR

Runway Information

Runway 14/32

Dimensions: 2800 x 60 ft. / 853 x 18 m
Surface: asphalt, in good condition
Runway edge lights: medium intensity
RUNWAY 14  RUNWAY 32
Latitude: 40-44.238000N40-43.909333N
Longitude: 079-35.952000W079-35.526833W
Elevation: 1104.5 ft.1104.5 ft.
Traffic pattern: leftleft
Runway heading: 145 magnetic, 135 true325 magnetic, 315 true
Markings: nonprecision, in good conditionnonprecision, in good condition
Runway end identifier lights: nono
Touchdown point: yes, no lightsyes, no lights
Obstructions: 26 ft. trees, 533 ft. from runway, 234 ft. left of centerline, 12:1 slope to clearnone

Airport Ownership and Management from official FAA records

Ownership: Privately-owned
Owner: THOMAS C & THEODORE J KIJOWSKI
444 FORDCITY RD
FREEPORT, PA 16229
Phone 724-294-2359
Manager: THOMAS C. KIJOWSKI
444 FORDCITY RD
FREEPORT, PA 16229
Phone 724-335-0390
412-418-3703.

Airport Operational Statistics

Aircraft based on the field: 19
Single engine airplanes: 19
    
Aircraft operations: avg 44/week *
65% local general aviation
35% transient general aviation
* for 12-month period ending 10 September 2020

Additional Remarks

FOR CD CTC JOHNSTOWN APCH AT 814-532-5960, WHEN APCH CLSD CTC CLEVELAND ARTCC AT 440-774-0234.

Instrument Procedures

NOTE: All procedures below are presented as PDF files. If you need a reader for these files, you should download the free Adobe Reader.

NOT FOR NAVIGATION. Please procure official charts for flight.
FAA instrument procedures published for use from 03 December 2020 at 0901Z to 31 December 2020 at 0900Z.

 
IAPs - Instrument Approach Procedures
RNAV (GPS) RWY 14   download (190KB)
RNAV (GPS) RWY 32   download (200KB)
NOTE: Special Take-Off Minimums/Departure Procedures apply   download (289KB)

Other nearby airports with instrument procedures:

KBTP - Pittsburgh/Butler Regional Airport (16 nm W)
KIDI - Indiana County Airport (Jimmy Stewart Field) (23 nm E)
KPJC - Zelienople Municipal Airport (26 nm W)
KAGC - Allegheny County Airport (27 nm SW)
KLBE - Arnold Palmer Regional Airport (29 nm S)
 
Loc | Ops | Rwys | IFR | FBO | Links
Com | Nav | Svcs | Stats | Notes
Aerial photo
WARNING: Photo may not be current or correct
Aerial photo of 6P7 (McVille Airport)
Photo taken 22-Nov-2015
looking southwest.

Do you have a better or more recent aerial photo of McVille Airport that you would like to share? If so, please send us your photo.

 
Airport distance calculator
Flying to McVille Airport? Find the distance to fly.

From to 6P7

Sunrise and sunset
Times for 05-Dec-2020
 Local
(UTC-5)
 Zulu
(UTC)
Morning civil twilight06:5811:58
Sunrise07:2912:29
Sunset16:5021:50
Evening civil twilight17:2122:21

Current date and time
Zulu (UTC)  05-Dec-2020 18:57:22
Local (UTC-5)  05-Dec-2020 13:57:22
 
METAR
KBTP 
16nm W 
051808Z AUTO 30007KT 270V330 10SM SCT022 OVC040 03/M03 A2997 RMK AO2
KIDI 
24nm E 
051855Z AUTO VRB05G11KT 10SM SCT027 OVC035 03/M01 A2995 RMK A01
KPJC 
26nm W 
051855Z AUTO 29005KT 10SM OVC041 03/M03 A2998 RMK AO2
KAGC 
27nm SW 
051853Z 33008KT 10SM FEW031 OVC043 03/M03 A2996 RMK AO2 SLP158 T00331028
KLBE 
29nm S 
051847Z 27008G19KT 20SM SCT030 03/M01 A2995
TAF
KAGC 
27nm SW 
051720Z 0518/0618 32010G20KT 5SM BR OVC020 TEMPO 0518/0522 -SHSN FM060000 30005KT P6SM BKN020
KLBE 
29nm S 
051720Z 0518/0618 31010KT P6SM OVC020 TEMPO 0518/0522 -SHSN FM060000 29005KT P6SM BKN020
KPIT 
34nm SW 
051720Z 0518/0624 32010G20KT P6SM BKN020 TEMPO 0518/0522 -SHSN FM060000 30005KT P6SM BKN020
NOTAMs
Click for the latest NOTAMs
NOTAMs are issued by the DoD/FAA and will open in a separate window not controlled by AirNav.

 

 
 

FBO, Fuel Providers, and Aircraft Ground Support

  
 Business Name 
 
 Contact 
 
 Services / Description 
 
Fuel Prices
 
Comments
  
McVille Airport 724-294-2359
no information available

If you are affiliated with McVille Airport and would like to show here your services, contact info, web link, logo, and more, click here
100LL Mogas
FS --- $3.60 
SS $4.25 --- 
 Updated 16-Nov-2020
 
   write
FS=Full service
SS=Self service
Update Fuel Prices
 

Would you like to see your business listed on this page?

 If your business provides an interesting product or service to pilots, flight crews, aircraft, or users of the McVille Airport, you should consider listing it here.  To start the listing process, click on the button below
 
Add a business
 

Other Pages about McVille Airport

Update a link
 
Copyright © AirNav, LLC. All rights reserved. Privacy Policy  Contact